�������l�o���
Date,Time,MP-1(��Sv/h),MP-2(��Sv/h),MP-3(��Sv/h),MP-4(��Sv/h),MP-5(��Sv/h),MP-6(��Sv/h),MP-7(��Sv/h),MP-8(��Sv/h),����,����(m/s),���J
2019/05/24,00:00,0.757,1.097,0.746,1.367,0.996,0.437,0.756,0.720,��쐼,6.4,��
2019/05/24,00:10,0.754,1.095,0.748,1.366,0.995,0.438,0.760,0.720,�쐼,4.2,��
2019/05/24,00:20,0.754,1.094,0.748,1.363,0.994,0.438,0.758,0.719,�쐼,3.8,��
2019/05/24,00:30,0.753,1.096,0.747,1.365,0.998,0.438,0.759,0.719,���쐼,2.6,��
2019/05/24,00:40,0.755,1.094,0.748,1.365,0.995,0.439,0.760,0.717,���쐼,1.5,��
2019/05/24,00:50,0.757,1.095,0.747,1.367,0.995,0.439,0.759,0.720,���쐼,1.7,��
2019/05/24,01:00,0.756,1.097,0.748,1.362,0.995,0.439,0.759,0.720,���쐼,2.5,��
2019/05/24,01:10,0.756,1.096,0.747,1.365,0.994,0.438,0.758,0.719,���쐼,2.6,��
2019/05/24,01:20,0.754,1.095,0.746,1.365,0.996,0.437,0.757,0.717,���쐼,2.6,��
2019/05/24,01:30,0.755,1.095,0.749,1.363,0.996,0.436,0.759,0.719,���쐼,3.6,��
2019/05/24,01:40,0.755,1.097,0.749,1.365,0.996,0.436,0.758,0.720,��,4.8,��
2019/05/24,01:50,0.754,1.092,0.745,1.364,0.995,0.436,0.758,0.718,���쐼,4.5,��
2019/05/24,02:00,0.754,1.095,0.748,1.364,0.996,0.438,0.759,0.717,���쐼,4.3,��
2019/05/24,02:10,0.754,1.094,0.747,1.363,0.995,0.437,0.757,0.717,���쐼,2.5,��
2019/05/24,02:20,0.754,1.095,0.748,1.364,0.996,0.437,0.758,0.720,���k��,2.2,��
2019/05/24,02:30,0.755,1.095,0.747,1.363,0.995,0.438,0.759,0.720,��,3.3,��
2019/05/24,02:40,0.755,1.093,0.748,1.364,0.997,0.438,0.760,0.718,��,3.0,��
2019/05/24,02:50,0.753,1.093,0.748,1.364,0.996,0.437,0.760,0.719,��,2.2,��
2019/05/24,03:00,0.755,1.091,0.747,1.360,0.996,0.439,0.759,0.718,���쐼,2.2,��
2019/05/24,03:10,0.755,1.092,0.747,1.366,0.995,0.438,0.759,0.718,���쐼,1.2,��
2019/05/24,03:20,0.755,1.096,0.746,1.364,0.994,0.437,0.761,0.719,��,1.1,��
2019/05/24,03:30,0.754,1.095,0.748,1.363,0.996,0.436,0.760,0.720,��쐼,2.3,��
2019/05/24,03:40,0.753,1.094,0.747,1.363,0.995,0.437,0.760,0.720,���쐼,2.2,��
2019/05/24,03:50,0.754,1.094,0.748,1.365,0.995,0.437,0.761,0.718,���쐼,4.4,��
2019/05/24,04:00,0.752,1.093,0.748,1.362,0.993,0.437,0.760,0.718,���쐼,5.5,��
2019/05/24,04:10,0.754,1.094,0.748,1.365,0.997,0.436,0.759,0.720,���쐼,6.1,��
2019/05/24,04:20,0.754,1.092,0.747,1.364,0.995,0.438,0.760,0.717,��,1.9,��
2019/05/24,04:30,0.756,1.092,0.746,1.362,0.994,0.437,0.758,0.718,���쐼,3.1,��
2019/05/24,04:40,0.754,1.092,0.747,1.365,0.994,0.437,0.759,0.719,���쐼,5.6,��
2019/05/24,04:50,0.753,1.093,0.747,1.362,0.992,0.437,0.756,0.718,���쐼,4.6,��
2019/05/24,05:00,0.752,1.093,0.748,1.363,0.994,0.437,0.758,0.720,��,3.9,��
2019/05/24,05:10,0.754,1.092,0.749,1.363,0.996,0.438,0.759,0.719,���쐼,6.1,��
2019/05/24,05:20,0.755,1.095,0.747,1.365,0.996,0.438,0.761,0.719,��,6.3,��
2019/05/24,05:30,0.757,1.092,0.749,1.362,0.995,0.437,0.759,0.720,��,7.4,��
2019/05/24,05:40,0.755,1.091,0.748,1.364,0.993,0.436,0.760,0.720,��,7.3,��
2019/05/24,05:50,0.755,1.093,0.749,1.366,0.996,0.436,0.761,0.720,��,6.1,��
2019/05/24,06:00,0.754,1.095,0.748,1.365,0.998,0.438,0.760,0.720,��,6.3,��
2019/05/24,06:10,0.755,1.094,0.749,1.365,0.995,0.438,0.760,0.718,��,5.8,��
2019/05/24,06:20,0.754,1.095,0.748,1.362,0.996,0.438,0.760,0.720,��,4.9,��
2019/05/24,06:30,0.755,1.097,0.750,1.365,0.995,0.437,0.761,0.721,��,5.8,��
2019/05/24,06:40,0.757,1.095,0.747,1.363,0.996,0.438,0.759,0.720,��,5.8,��
2019/05/24,06:50,0.755,1.094,0.750,1.366,0.994,0.437,0.759,0.720,��,6.6,��
2019/05/24,07:00,0.756,1.092,0.749,1.363,0.998,0.438,0.759,0.722,��,7.9,��
2019/05/24,07:10,0.756,1.095,0.749,1.367,0.998,0.438,0.762,0.720,��,8.1,��
2019/05/24,07:20,0.757,1.095,0.748,1.367,0.995,0.436,0.761,0.722,��,8.6,��
2019/05/24,07:30,0.758,1.094,0.748,1.367,0.995,0.437,0.760,0.721,��,7.6,��
2019/05/24,07:40,0.756,1.095,0.750,1.366,0.999,0.435,0.762,0.722,��,6.3,��
2019/05/24,07:50,0.756,1.092,0.750,1.367,0.999,0.437,0.761,0.720,��,7.0,��
2019/05/24,08:00,0.760,1.090,0.751,1.367,0.998,0.435,0.761,0.720,��,7.2,��
2019/05/24,08:10,0.757,1.091,0.749,1.369,0.997,0.433,0.762,0.720,���쐼,7.8,��
2019/05/24,08:20,0.759,1.091,0.747,1.368,0.998,0.435,0.759,0.718,��,8.0,��
2019/05/24,08:30,0.759,1.091,0.748,1.370,0.997,0.434,0.762,0.718,��,6.8,��
2019/05/24,08:40,0.758,1.090,0.750,1.367,0.998,0.434,0.762,0.720,��,6.8,��
2019/05/24,08:50,0.758,1.090,0.748,1.369,0.999,0.436,0.761,0.720,���k��,7.3,��
2019/05/24,09:00,0.756,1.091,0.747,1.367,1.000,0.438,0.761,0.721,���k��,8.6,��
2019/05/24,09:10,0.758,1.094,0.750,1.370,1.001,0.438,0.760,0.719,��,5.5,��
2019/05/24,09:20,0.759,1.090,0.748,1.371,1.003,0.436,0.762,0.720,��,6.0,��
2019/05/24,09:30,0.760,1.092,0.750,1.369,1.001,0.439,0.762,0.720,���k��,4.8,��
2019/05/24,09:40,0.759,1.093,0.750,1.370,0.996,0.438,0.762,0.719,��,8.3,��
2019/05/24,09:50,0.760,1.097,0.748,1.370,1.001,0.439,0.763,0.719,���k��,5.9,��
2019/05/24,10:00,0.758,1.093,0.748,1.372,1.001,0.438,0.760,0.719,���k��,5.5,��
2019/05/24,10:10,0.756,1.095,0.747,1.371,1.002,0.437,0.762,0.719,���k��,1.9,��
2019/05/24,10:20,0.759,1.094,0.748,1.369,1.001,0.439,0.761,0.719,�k�k��,2.0,��
2019/05/24,10:30,0.757,1.097,0.748,1.371,1.003,0.438,0.760,0.720,���k��,2.0,��
2019/05/24,10:40,0.758,1.098,0.749,1.370,1.003,0.438,0.761,0.718,-,CALM,��
2019/05/24,10:50,0.758,1.097,0.749,1.374,1.003,0.438,0.760,0.720,�k��,1.9,��
2019/05/24,11:00,0.757,1.099,0.749,1.369,1.004,0.438,0.760,0.719,-,CALM,��
2019/05/24,11:10,0.757,1.098,0.749,1.370,1.003,0.438,0.759,0.719,��,1.4,��
2019/05/24,11:20,0.760,1.099,0.751,1.369,1.003,0.437,0.763,0.718,��,3.8,��
2019/05/24,11:30,0.758,1.099,0.749,1.369,1.003,0.438,0.761,0.720,���쓌,3.7,��
2019/05/24,11:40,0.759,1.100,0.752,1.371,1.004,0.437,0.761,0.721,���쓌,2.3,��
2019/05/24,11:50,0.759,1.101,0.752,1.371,1.005,0.437,0.761,0.720,���쓌,3.2,��
2019/05/24,12:00,0.759,1.099,0.750,1.370,1.006,0.438,0.761,0.720,���쓌,4.4,��
2019/05/24,12:10,0.758,1.100,0.751,1.369,1.003,0.437,0.762,0.719,�쓌,4.3,��
2019/05/24,12:20,0.759,1.100,0.752,1.371,1.004,0.437,0.762,0.720,�쓌,4.4,��
2019/05/24,12:30,0.760,1.101,0.753,1.370,1.005,0.438,0.761,0.719,�쓌,5.3,��
2019/05/24,12:40,0.761,1.101,0.752,1.373,1.007,0.438,0.761,0.720,�쓌,4.0,��
2019/05/24,12:50,0.760,1.102,0.752,1.371,1.006,0.437,0.762,0.721,�쓌,4.3,��
2019/05/24,13:00,0.762,1.103,0.753,1.371,1.004,0.437,0.761,0.719,�쓌,4.3,��
2019/05/24,13:10,0.760,1.104,0.754,1.372,1.003,0.436,0.761,0.720,�쓌,5.3,��
2019/05/24,13:20,0.760,1.102,0.754,1.373,1.008,0.437,0.761,0.720,�쓌,5.4,��
2019/05/24,13:30,0.760,1.103,0.751,1.371,1.000,0.438,0.761,0.722,�쓌,4.7,��
2019/05/24,13:40,0.763,1.101,0.753,1.372,0.992,0.438,0.761,0.720,��쓌,4.3,��
2019/05/24,13:50,0.763,1.102,0.752,1.372,0.989,0.438,0.761,0.722,��쓌,5.4,��
2019/05/24,14:00,0.761,1.102,0.752,1.373,0.996,0.437,0.762,0.719,��쓌,5.1,��
2019/05/24,14:10,0.761,1.103,0.754,1.373,1.010,0.436,0.762,0.722,��쓌,4.5,��
2019/05/24,14:20,0.761,1.106,0.754,1.372,1.009,0.436,0.761,0.718,��쓌,5.6,��
2019/05/24,14:30,0.763,1.106,0.753,1.373,1.010,0.438,0.761,0.721,��쓌,5.1,��
2019/05/24,14:40,0.760,1.107,0.753,1.373,1.008,0.439,0.759,0.721,��쓌,5.3,��
2019/05/24,14:50,0.761,1.105,0.753,1.375,1.010,0.438,0.760,0.721,��,5.2,��
2019/05/24,15:00,0.762,1.105,0.753,1.375,1.008,0.438,0.761,0.720,��,5.8,��
2019/05/24,15:10,0.761,1.107,0.753,1.373,1.010,0.439,0.762,0.720,��,6.2,��
2019/05/24,15:20,0.762,1.104,0.754,1.373,1.010,0.438,0.762,0.722,��,6.2,��
2019/05/24,15:30,0.761,1.107,0.754,1.377,1.009,0.437,0.762,0.720,��,5.7,��
2019/05/24,15:40,0.761,1.109,0.753,1.375,1.010,0.439,0.761,0.720,��,5.2,��
2019/05/24,15:50,0.762,1.110,0.754,1.375,1.010,0.440,0.763,0.718,��,5.2,��
2019/05/24,16:00,0.761,1.108,0.755,1.376,1.008,0.439,0.761,0.720,��,5.0,��
2019/05/24,16:10,0.762,1.108,0.754,1.373,1.009,0.439,0.762,0.721,��,5.2,��
2019/05/24,16:20,0.762,1.109,0.756,1.374,1.012,0.438,0.762,0.720,��,6.5,��
2019/05/24,16:30,0.763,1.109,0.754,1.378,1.007,0.438,0.761,0.719,��,5.7,��
2019/05/24,16:40,0.763,1.109,0.755,1.376,1.010,0.440,0.763,0.719,��,6.1,��
2019/05/24,16:50,0.761,1.109,0.755,1.376,1.009,0.441,0.763,0.719,��,6.2,��
2019/05/24,17:00,0.761,1.112,0.756,1.375,1.010,0.439,0.762,0.720,��,7.1,��
2019/05/24,17:10,0.762,1.112,0.758,1.377,1.011,0.440,0.761,0.720,��쓌,6.6,��
2019/05/24,17:20,0.763,1.115,0.758,1.380,1.013,0.440,0.763,0.720,��쓌,6.4,��
2019/05/24,17:30,0.763,1.112,0.757,1.375,1.009,0.440,0.762,0.721,��,6.4,��
2019/05/24,17:40,0.763,1.112,0.758,1.380,1.012,0.440,0.762,0.721,��,7.0,��
2019/05/24,17:50,0.763,1.114,0.759,1.377,1.009,0.440,0.761,0.720,��쓌,6.3,��
2019/05/24,18:00,0.760,1.111,0.755,1.376,1.012,0.441,0.762,0.719,��,7.0,��
2019/05/24,18:10,0.761,1.109,0.759,1.380,1.009,0.441,0.762,0.719,��,4.0,��
2019/05/24,18:20,0.761,1.111,0.757,1.381,1.010,0.441,0.760,0.723,��쐼,4.9,��
2019/05/24,18:30,0.761,1.116,0.758,1.380,1.012,0.440,0.760,0.722,��,6.2,��
2019/05/24,18:40,0.762,1.114,0.756,1.380,1.013,0.441,0.763,0.724,��,5.6,��
2019/05/24,18:50,0.762,1.112,0.758,1.379,1.012,0.441,0.763,0.721,��,5.4,��
2019/05/24,19:00,0.764,1.113,0.757,1.381,1.012,0.440,0.762,0.723,��,4.9,��
2019/05/24,19:10,0.762,1.113,0.758,1.378,1.012,0.442,0.763,0.723,��쐼,3.5,��
2019/05/24,19:20,0.762,1.115,0.757,1.379,1.012,0.441,0.763,0.721,��쐼,2.6,��
2019/05/24,19:30,0.764,1.113,0.757,1.381,1.012,0.440,0.763,0.722,���쐼,2.0,��
2019/05/24,19:40,0.764,1.114,0.757,1.381,1.011,0.441,0.762,0.722,���쐼,1.9,��
2019/05/24,19:50,0.764,1.112,0.757,1.379,1.012,0.441,0.761,0.721,���쐼,2.3,��
2019/05/24,20:00,0.766,1.112,0.757,1.381,1.013,0.442,0.764,0.722,���쐼,2.0,��
2019/05/24,20:10,0.763,1.110,0.757,1.381,1.012,0.442,0.764,0.724,���쐼,2.3,��
2019/05/24,20:20,0.766,1.111,0.756,1.382,1.013,0.441,0.764,0.723,���쐼,3.6,��
2019/05/24,20:30,0.762,1.111,0.756,1.378,1.014,0.440,0.765,0.722,���쐼,5.9,��
2019/05/24,20:40,0.763,1.112,0.757,1.380,1.011,0.441,0.762,0.722,��,6.4,��
2019/05/24,20:50,0.763,1.113,0.757,1.381,1.012,0.439,0.764,0.724,��,5.5,��
2019/05/24,21:00,0.765,1.111,0.756,1.379,1.013,0.440,0.763,0.721,��,5.5,��
2019/05/24,21:10,0.761,1.111,0.756,1.383,1.013,0.441,0.763,0.723,��,5.5,��
2019/05/24,21:20,0.763,1.113,0.757,1.380,1.013,0.441,0.763,0.721,��,6.0,��
2019/05/24,21:30,0.762,1.112,0.756,1.381,1.012,0.440,0.762,0.722,��,6.2,��
2019/05/24,21:40,0.762,1.110,0.757,1.381,1.012,0.440,0.763,0.722,��,6.2,��
2019/05/24,21:50,0.762,1.111,0.756,1.377,1.010,0.441,0.764,0.721,��,6.6,��
2019/05/24,22:00,0.763,1.108,0.755,1.380,1.012,0.441,0.763,0.722,��,6.0,��
2019/05/24,22:10,0.762,1.108,0.754,1.382,1.012,0.439,0.761,0.721,��,6.3,��
2019/05/24,22:20,0.764,1.110,0.755,1.381,1.012,0.441,0.763,0.721,��,7.4,��
2019/05/24,22:30,0.762,1.109,0.756,1.380,1.012,0.440,0.762,0.724,��,7.5,��
2019/05/24,22:40,0.763,1.111,0.754,1.382,1.012,0.441,0.763,0.722,��,7.0,��
2019/05/24,22:50,0.762,1.111,0.753,1.380,1.012,0.441,0.763,0.722,��,6.5,��
2019/05/24,23:00,0.762,1.109,0.755,1.380,1.009,0.441,0.763,0.722,���쐼,6.6,��
2019/05/24,23:10,0.761,1.109,0.757,1.380,1.013,0.439,0.764,0.720,���쐼,7.0,��
2019/05/24,23:20,0.763,1.110,0.757,1.381,1.009,0.438,0.764,0.723,���쐼,7.2,��
2019/05/24,23:30,0.763,1.109,0.756,1.382,1.011,0.440,0.762,0.723,���쐼,7.0,��
2019/05/24,23:40,0.763,1.109,0.756,1.380,1.011,0.442,0.763,0.721,���쐼,5.9,��
2019/05/24,23:50,0.762,1.110,0.755,1.381,1.012,0.439,0.764,0.720,���쐼,6.3,��
